Flag for United Kingdom Weather past 2 weeks in Newport, Wales, United Kingdom

Now
59 °F

Scattered clouds.


Feels Like: 58 °F
Forecast: 42 / 66 °F
Wind: 7 mph from Northeast

Location: Bristol / Lulsgate

Current Time: Sep 21, 2014 at 7:40:42 PM

Latest Report: Sep 21, 2014 at 6:50 PM


Visibility: N/A

Pressure: 30.30 "Hg

Humidity: 68%

Dew point: 48 °F

Location of NewportLocation

Historic Weather in Newport — Graph

°F

Newport temperature yesterday

Maximum temperature yesterday: 64 °F (at 1:50 PM)
Minimum temperature yesterday: 59 °F (at 11:20 PM)
Average temperature yesterday: 61 °F

Past Weeks' High & Low Weather Summary

 TemperatureHumidityPressure
High73 °F (Sep 18, 2:50 PM)100% (Sep 6, 11:50 PM)30.33 "Hg (Sep 6, 11:50 PM)
Low46 °F (Sep 11, 5:20 AM)52% (Sep 8, 3:20 PM)29.77 "Hg (Sep 18, 5:50 AM)
Average59 °F82%30.07 "Hg
* Reported Sep 6 6:20 PM — Sep 21 6:20 PM, Newport, Weather by CustomWeather, © 2014

Note: Actual official high and low records may vary slightly from our data, if they occured in-between our weather recording intervals... More about our weather records

Advertising

Newport weather history for previous 24 hours

 ConditionsComfort  
Time TempWeatherWind HumidityBarometerVisibility
6:20 PM
Sep 21
59 °FScattered clouds.6 mph68%30.30 "HgN/A
5:50 PM61 °FScattered clouds.8 mph63%30.30 "HgN/A
5:20 PM61 °FScattered clouds.8 mph63%30.30 "HgN/A
4:50 PM61 °FPartly sunny.7 mph63%30.30 "HgN/A
4:20 PM63 °FScattered clouds.8 mph59%30.30 "HgN/A
3:20 PM63 °FScattered clouds.9 mph59%30.30 "HgN/A
2:50 PM61 °FScattered clouds.12 mph63%30.30 "HgN/A
2:20 PM61 °FPartly sunny.10 mph63%30.30 "HgN/A
1:50 PM63 °FScattered clouds.13 mph59%30.30 "HgN/A
1:20 PM61 °FScattered clouds.10 mph63%30.30 "HgN/A
12:50 PM61 °FScattered clouds.12 mph63%30.27 "HgN/A
12:20 PM61 °FPassing clouds.10 mph68%30.27 "HgN/A
11:50 AM59 °FPassing clouds.10 mph72%30.27 "HgN/A
11:20 AM57 °FPassing clouds.9 mph72%30.27 "HgN/A
10:50 AM57 °FPassing clouds.12 mph77%30.27 "HgN/A
10:20 AM55 °FPassing clouds.10 mph82%30.27 "HgN/A
9:50 AM55 °FPassing clouds.10 mph82%30.27 "Hg6 mi
9:20 AM54 °FPassing clouds.9 mph88%30.27 "Hg5 mi
8:50 AM52 °FPassing clouds.13 mph94%30.24 "Hg4 mi
8:20 AM52 °FPassing clouds.12 mph88%30.24 "Hg4 mi
7:50 AM50 °FHaze.13 mph94%30.24 "Hg3 mi
7:20 AM52 °FHaze.13 mph94%30.24 "Hg3 mi
6:50 AM52 °FPassing clouds.14 mph94%30.21 "Hg3 mi
6:20 AM52 °FPassing clouds.13 mph94%30.21 "Hg3 mi
5:50 AM52 °FPassing clouds.10 mph94%30.21 "Hg4 mi
5:20 AM54 °FPassing clouds.10 mph88%30.21 "Hg4 mi
4:50 AM54 °FPassing clouds.10 mph88%30.18 "Hg5 mi
4:20 AM55 °FPassing clouds.12 mph88%30.18 "HgN/A
3:50 AM55 °FPassing clouds.10 mph88%30.18 "Hg4 mi
3:20 AM57 °FLow clouds.12 mph88%30.18 "Hg4 mi
2:50 AM57 °FPassing clouds.10 mph88%30.18 "Hg4 mi
2:20 AM57 °FPassing clouds.13 mph88%30.18 "Hg4 mi
1:50 AM57 °FPassing clouds.12 mph88%30.18 "Hg6 mi
1:20 AM59 °FPassing clouds.12 mph82%30.18 "HgN/A
12:50 AM59 °FPassing clouds.10 mph88%30.15 "Hg4 mi
12:20 AM59 °FPartly cloudy.10 mph88%30.15 "Hg2 mi
11:50 PM
Sep 20
59 °FMostly cloudy.9 mph94%30.15 "Hg2 mi
11:20 PM59 °FHaze.8 mph94%30.12 "Hg2 mi
10:50 PM61 °FOvercast.9 mph88%30.12 "Hg2 mi
10:20 PM61 °FOvercast.8 mph88%30.12 "Hg2 mi
9:20 PM61 °FPartly cloudy.8 mph88%30.12 "Hg4 mi
8:50 PM61 °FPartly cloudy.7 mph88%30.09 "Hg4 mi
8:20 PM61 °FPartly cloudy.12 mph88%30.09 "Hg4 mi
7:50 PM63 °FPartly sunny.9 mph83%30.09 "Hg4 mi
7:20 PM63 °FPartly sunny.8 mph88%30.07 "Hg4 mi
Weather by CustomWeather, © 2014

See weather overviewHow to use our weather pages